Tioga Municipal Airport, ND

9:05 AM CDT on June 23, 2017 (GMT -0500)
Tioga Municipal Airport

Weather History for KD60 - April, 2014

Change the Weather History Date:

Tuesday, April 22, 2014

  Actual Average (KISN) Record (KISN)
Temperature  
Mean Temperature 47 °F -  
Max Temperature 66 °F 62 °F 89 °F (1989)
Min Temperature 28 °F 32 °F 12 °F (1909)
Degree Days  
Heating Degree Days 18    
Moisture  
Dew Point 30 °F    
Average Humidity 56    
Maximum Humidity 100    
Minimum Humidity 22    
Precipitation  
Precipitation 0.00 in - - ()
Sea Level Pressure  
Sea Level Pressure 29.92 in    
Wind  
Wind Speed 11 mph (ESE)    
Max Wind Speed 28 mph    
Max Gust Speed 38 mph    
Visibility 10 miles    
Events      
Averages and records for this station are not official NWS values.
T = Trace of Precipitation, MM = Missing Value Source: NWS Daily Summary

Daily Weather History Graph

Daily Weather History Graph

Search for Another Location

Airport or City:

Trip Planner

Search our weather history database for the weather conditions in past years. The results will help you decide how hot, cold, wet, or windy it might be!

Date:

Astronomy

Apr. 22, 2014 Rise Set
Actual Time 6:48 AM CDT 8:52 PM CDT
Civil Twilight 6:14 AM CDT 9:26 PM CDT
Nautical Twilight 5:32 AM CDT 10:08 PM CDT
Astronomical Twilight 4:45 AM CDT 10:56 PM CDT
Moon 3:12 AM CDT (4/22) 1:24 PM CDT (4/22)
Length of Visible Light 15h 12m
Length of Day
14h 04m
Last Quarter, 46% of the Moon is Illuminated
Apr 22
Last Quarter
Apr 29
New
May 6
First Quarter
May 14
Full
May 21
Last Quarter

Hourly Weather History & Observations

Time (CDT) Temp. Windchill Dew Point Humidity Pressure Visibility Wind Dir Wind Speed Gust Speed Precip Events Conditions
12:15 AM 35.6 °F 32.8 °F 32.0 °F 87% 30.11 in 10.0 mi East 3.5 mph - N/A   Clear
12:35 AM 35.6 °F 31.7 °F 33.8 °F 93% 30.11 in 10.0 mi East 4.6 mph - N/A   Clear
12:55 AM 32.0 °F - 32.0 °F 100% 30.11 in 10.0 mi Calm Calm - N/A   Clear
1:15 AM 32.0 °F - 32.0 °F 100% 30.11 in 10.0 mi Calm Calm - N/A   Clear
1:35 AM 32.0 °F - 32.0 °F 100% 30.12 in 10.0 mi Calm Calm - N/A   Clear
1:55 AM 32.0 °F - 32.0 °F 100% 30.11 in 10.0 mi Calm Calm - N/A   Clear
2:15 AM 32.0 °F 25.6 °F 32.0 °F 100% 30.11 in 10.0 mi East 6.9 mph - N/A   Clear
2:35 AM 32.0 °F 28.7 °F 32.0 °F 100% 30.11 in 10.0 mi ENE 3.5 mph - N/A   Clear
2:55 AM 32.0 °F - 32.0 °F 100% 30.10 in 10.0 mi Calm Calm - N/A   Clear
3:15 AM 32.0 °F 28.7 °F 32.0 °F 100% 30.09 in 10.0 mi ESE 3.5 mph - N/A   Clear
3:35 AM 32.0 °F 27.5 °F 32.0 °F 100% 30.09 in 10.0 mi East 4.6 mph - N/A   Clear
3:55 AM 28.4 °F 24.6 °F 28.4 °F 100% 30.09 in 10.0 mi NE 3.5 mph - N/A   Clear
4:15 AM 30.2 °F 25.4 °F 30.2 °F 100% 30.08 in 10.0 mi ENE 4.6 mph - N/A   Clear
4:35 AM 28.4 °F 24.6 °F 28.4 °F 100% 30.08 in 10.0 mi ENE 3.5 mph - N/A   Clear
4:55 AM 28.4 °F 24.6 °F 28.4 °F 100% 30.08 in 10.0 mi ESE 3.5 mph - N/A   Clear
5:15 AM 28.4 °F 21.2 °F 28.4 °F 100% 30.07 in 10.0 mi ENE 6.9 mph - N/A   Clear
5:35 AM 32.0 °F 24.2 °F 32.0 °F 100% 30.06 in 10.0 mi East 9.2 mph - N/A   Clear
5:55 AM 32.0 °F 24.2 °F 32.0 °F 100% 30.06 in 10.0 mi East 9.2 mph - N/A   Clear
6:15 AM 30.2 °F 26.7 °F 30.2 °F 100% 30.06 in 10.0 mi East 3.5 mph - N/A   Clear
6:35 AM 32.0 °F 27.5 °F 32.0 °F 100% 30.05 in 10.0 mi East 4.6 mph - N/A   Clear
6:55 AM 28.4 °F 20.4 °F 28.4 °F 100% 30.04 in 10.0 mi East 8.1 mph - N/A   Clear
7:15 AM 32.0 °F 25.6 °F 32.0 °F 100% 30.04 in 10.0 mi East 6.9 mph - N/A   Clear
7:35 AM 32.0 °F 26.4 °F 32.0 °F 100% 30.03 in 10.0 mi East 5.8 mph - N/A   Clear
7:55 AM 32.0 °F 26.4 °F 32.0 °F 100% 30.02 in 10.0 mi East 5.8 mph - N/A   Clear
8:15 AM 33.8 °F 28.6 °F 33.8 °F 100% 30.01 in 10.0 mi East 5.8 mph - N/A   Clear
8:35 AM 37.4 °F 32.1 °F 37.4 °F 100% 30.01 in 10.0 mi ESE 6.9 mph - N/A   Clear
8:55 AM 44.6 °F 40.7 °F 35.6 °F 71% 30.01 in 10.0 mi East 6.9 mph - N/A   Clear
9:15 AM 48.2 °F - 32.0 °F 54% 30.00 in 10.0 mi SE 12.7 mph 18.4 mph N/A   Clear
9:35 AM 51.8 °F - 32.0 °F 47% 30.00 in 10.0 mi SSE 13.8 mph 21.9 mph N/A   Clear
9:55 AM 53.6 °F - 28.4 °F 38% 29.98 in 10.0 mi SSE 19.6 mph 26.5 mph N/A   Clear
10:15 AM 55.4 °F - 26.6 °F 33% 29.98 in 10.0 mi SSE 18.4 mph - N/A   Clear
10:35 AM 57.2 °F - 26.6 °F 31% 29.97 in 10.0 mi SE 20.7 mph 29.9 mph N/A   Clear
10:55 AM 57.2 °F - 26.6 °F 31% 29.96 in 10.0 mi SE 19.6 mph 26.5 mph N/A   Clear
11:15 AM 59.0 °F - 24.8 °F 27% 29.95 in 10.0 mi SE 21.9 mph 27.6 mph N/A   Clear
11:35 AM 60.8 °F - 26.6 °F 27% 29.94 in 10.0 mi SE 19.6 mph 28.8 mph N/A   Clear
11:55 AM 62.6 °F - 24.8 °F 24% 29.93 in 10.0 mi SE 25.3 mph 32.2 mph N/A   Clear
12:15 PM 62.6 °F - 24.8 °F 24% 29.92 in 10.0 mi SE 25.3 mph 33.4 mph N/A   Clear
12:35 PM 64.4 °F - 24.8 °F 22% 29.91 in 10.0 mi SSE 23.0 mph 34.5 mph N/A   Clear
12:55 PM 64.4 °F - 24.8 °F 22% 29.90 in 10.0 mi SE 24.2 mph 34.5 mph N/A   Clear
1:15 PM 64.4 °F - 24.8 °F 22% 29.89 in 10.0 mi SE 25.3 mph 34.5 mph N/A   Clear
1:35 PM 64.4 °F - 24.8 °F 22% 29.88 in 10.0 mi SE 27.6 mph 35.7 mph N/A   Clear
1:55 PM 64.4 °F - 26.6 °F 24% 29.87 in 10.0 mi SE 25.3 mph 34.5 mph N/A   Clear
2:15 PM 66.2 °F - 26.6 °F 23% 29.87 in 10.0 mi SE 23.0 mph 38.0 mph N/A   Clear
2:35 PM 66.2 °F - 26.6 °F 23% 29.86 in 10.0 mi SE 27.6 mph 35.7 mph N/A   Clear
2:55 PM 66.2 °F - 26.6 °F 23% 29.85 in 10.0 mi SE 24.2 mph 34.5 mph N/A   Clear
3:15 PM 66.2 °F - 26.6 °F 23% 29.84 in 10.0 mi SSE 25.3 mph 35.7 mph N/A   Clear
3:35 PM 66.2 °F - 26.6 °F 23% 29.83 in 10.0 mi SSE 25.3 mph 35.7 mph N/A   Clear
3:55 PM 66.2 °F - 26.6 °F 23% 29.82 in 10.0 mi SE 24.2 mph 33.4 mph N/A   Clear
4:15 PM 66.2 °F - 26.6 °F 23% 29.82 in 10.0 mi SE 19.6 mph 35.7 mph N/A   Clear
4:35 PM 66.2 °F - 26.6 °F 23% 29.81 in 10.0 mi SE 23.0 mph 36.8 mph N/A   Clear
4:55 PM 66.2 °F - 28.4 °F 24% 29.80 in 10.0 mi SE 26.5 mph 33.4 mph N/A   Clear
5:15 PM 66.2 °F - 28.4 °F 24% 29.80 in 10.0 mi SE 24.2 mph 36.8 mph N/A   Clear
5:35 PM 66.2 °F - 28.4 °F 24% 29.79 in 10.0 mi SE 25.3 mph 34.5 mph N/A   Clear
5:55 PM 66.2 °F - 28.4 °F 24% 29.78 in 10.0 mi SE 26.5 mph 33.4 mph N/A   Clear
6:15 PM 66.2 °F - 28.4 °F 24% 29.77 in 10.0 mi SE 26.5 mph 33.4 mph N/A   Clear
6:35 PM 66.2 °F - 28.4 °F 24% 29.76 in 10.0 mi SE 24.2 mph 32.2 mph N/A   Clear
6:55 PM 64.4 °F - 28.4 °F 26% 29.75 in 10.0 mi SE 26.5 mph 33.4 mph N/A   Clear
7:15 PM 64.4 °F - 28.4 °F 26% 29.74 in 10.0 mi SE 24.2 mph 36.8 mph N/A   Clear
7:35 PM 64.4 °F - 28.4 °F 26% 29.74 in 10.0 mi SE 26.5 mph 34.5 mph N/A   Clear
7:55 PM 62.6 °F - 30.2 °F 30% 29.74 in 10.0 mi ESE 21.9 mph 28.8 mph N/A   Clear
8:15 PM 60.8 °F - 30.2 °F 31% 29.74 in 10.0 mi ESE 20.7 mph 24.2 mph N/A   Clear
8:35 PM 59.0 °F - 32.0 °F 36% 29.74 in 10.0 mi ESE 15.0 mph 23.0 mph N/A   Clear
8:55 PM 57.2 °F - 32.0 °F 38% 29.74 in 10.0 mi ESE 13.8 mph - N/A   Clear
9:15 PM 55.4 °F - 32.0 °F 41% 29.74 in 10.0 mi ESE 15.0 mph 19.6 mph N/A   Clear
9:35 PM 53.6 °F - 32.0 °F 44% 29.74 in 10.0 mi ESE 15.0 mph - N/A   Clear
9:55 PM 53.6 °F - 32.0 °F 44% 29.74 in 10.0 mi ESE 16.1 mph 23.0 mph N/A   Clear
10:15 PM 53.6 °F - 32.0 °F 44% 29.74 in 10.0 mi ESE 19.6 mph 24.2 mph N/A   Clear
10:35 PM 53.6 °F - 32.0 °F 44% 29.74 in 10.0 mi ESE 19.6 mph 26.5 mph N/A   Clear
10:55 PM 51.8 °F - 32.0 °F 47% 29.74 in 10.0 mi ESE 20.7 mph 26.5 mph N/A   Clear
11:15 PM 50.0 °F - 32.0 °F 50% 29.73 in 10.0 mi ESE 19.6 mph 26.5 mph N/A   Clear
11:35 PM 50.0 °F - 32.0 °F 50% 29.72 in 10.0 mi ESE 20.7 mph 27.6 mph N/A   Clear
11:55 PM 50.0 °F - 32.0 °F 50% 29.72 in 10.0 mi ESE 18.4 mph 25.3 mph N/A   Clear